Powrót do katalogu

ONEWEB-0158

AktywnyŁącznośćPO
NORAD 48054·PAYLOAD·🇬🇧 United Kingdom

Wystrzelony Mar 25, 2021 z Vostochny Cosmodrome

Loading…

Następne Przeloty (najbliższe 24 godziny)

TLE

ŚwieżeSource: CelesTrak SupGP

Epoka: Sep 14, 2026, 13:59 UTC

1 48054C 21025N   26257.58278194  .00001989  00000+0  54518-2 0  2575
2 48054  87.8935 302.4387 0002155  90.4731  13.4555 13.13473584    10

Śledź ONEWEB-0158 w czasie rzeczywistym z AllMySat

Download on the App Store